map of CAS home
Great Circle Mapper logo
CAS - Airport
Location
City:  Casablanca, Morocco
Name:Anfa
ICAO:GMMC
IATA:CAS

Details
Type:Airport (Aerodrome, Airfield)
Use:Public/Civil
Latitude:3333'25"N (33.556981)
Longitude:739'38"W (-7.660491)
Datum:WGS 1984
Elevation:203 ft (62 m)
Variation:2.01W (WMM2015 magnetic declination)
0.11 annual change
Runways:1
Longest:6904 × 148 ft (2104 × 45 m), paved

Time
Time Zone:UTC+0 (DST+1)
Local Time:

Weather
METAR:GMMC 292000Z 02010KT 9999 SCT016 20/14 Q1020 NOSIG

Related Locations
Nearby:
Farthest:KAT: 12315 mi / 19819 km
Kaitaia, NZ

Find:

   beyond  
but within

Other Information
Maps:
NOTAMs:
Links:
Sources:

  
flag of Morocco   

Sectional Chart

Flight Planning
at skyvector.com

Satellite Image

Google Maps Satellite view

 

Copyright © 2004-2016 Karl L. Swartz. All rights reserved.
The Great Circle Mapper name and logo are trademarks of the Great Circle Mapper.
All other trademarks mentioned herein belong to their respective owners.
Please see credits for attibutions and further copyright information.

  Follow gcmap on Facebook Follow gcmap on Twitter Follow gcmap on Google+ GCmap on LinkedIn

hCard Microformat

Geo Microformat